Overview Statistics Trail Chart Weather Telemetry Raw packets
 

This is the latest recevied weather packets stored in our database for station/object KK6MIG-13. If no packets are shown the sender has not sent any weather packets the latest 10 day(s).

<< 407 408 409 410 411 412 413 >>
Time Temp. Humidity Pressure Rain* Wind** Luminosity Snow
1788051294 16.67° C 38% 1012.4 hPa 0 mm - 322 W/m² -
1788051231 16.67° C 36% 1012.4 hPa 0 mm - 325 W/m² -
1788051171 16.67° C 36% 1012.4 hPa 0 mm - 327 W/m² -
1788051109 16.67° C 35% 1012.4 hPa 0 mm - 330 W/m² -
1788051045 16.67° C 37% 1012.4 hPa 0 mm - 334 W/m² -
1788050985 16.67° C 35% 1012.5 hPa 0 mm - 339 W/m² -
1788050925 16.67° C 35% 1012.4 hPa 0 mm - 345 W/m² -
1788050864 16.67° C 37% 1012.4 hPa 0 mm - 346 W/m² -
1788050802 16.67° C 37% 1012.5 hPa 0 mm - 348 W/m² -
1788050737 16.67° C 36% 1012.4 hPa 0 mm - 352 W/m² -
1788050676 16.67° C 37% 1012.4 hPa 0 mm - 355 W/m² -
1788050616 16.67° C 39% 1012.5 hPa 0 mm - 359 W/m² -
1788050556 16.67° C 39% 1012.5 hPa 0 mm - 364 W/m² -
1788050496 16.67° C 39% 1012.4 hPa 0 mm - 366 W/m² -
1788050428 16.67° C 36% 1012.5 hPa 0 mm - 373 W/m² -
1788050369 16.67° C 36% 1012.4 hPa 0 mm - 374 W/m² -
1788050309 16.67° C 37% 1012.4 hPa 0 mm - 378 W/m² -
1788050249 16.67° C 38% 1012.4 hPa 0 mm - 378 W/m² -
1788050187 16.67° C 39% 1012.5 hPa 0 mm - 383 W/m² -
1788050121 16.67° C 38% 1012.4 hPa 0 mm - 388 W/m² -
1788050060 16.67° C 38% 1012.4 hPa 0 mm - 394 W/m² -
1788050000 16.67° C 41% 1012.4 hPa 0 mm - 397 W/m² -
1788049940 16.67° C 43% 1012.5 hPa 0 mm - 401 W/m² -
1788049880 16.67° C 41% 1012.4 hPa 0 mm - 403 W/m² -
1788049814 17.22° C 40% 1012.5 hPa 0 mm - 406 W/m² -

* Rain latest hour (hover to see other rain measurements)
** Current wind speed in m/s (hover to see current wind gust speed)